Powrót do katalogu

STARLINK-4050

AktywnyŁącznośćVLEO
NORAD 53274·PAYLOAD·🇺🇸 United States

Wystrzelony Jul 24, 2022 z Cape Canaveral Space Force Station

Loading…

Następne Przeloty (najbliższe 24 godziny)

TLE

ŚwieżeSource: CelesTrak SupGP

Epoka: Sep 15, 2026, 01:51 UTC

1 53274C 22086AJ  26258.07756944 -.00034342  00000+0 -10423-2 0  2581
2 53274  53.1583  39.3497 0001255  90.8455 175.7387 15.33558377    13

Śledź STARLINK-4050 w czasie rzeczywistym z AllMySat

Download on the App Store